TimeCDT,TemperatureF,Dew PointF,Humidity,Sea Level PressureIn,VisibilityMPH,Wind Direction,Wind SpeedMPH,Gust SpeedMPH,PrecipitationIn,Events,Conditions,WindDirDegrees,DateUTC
12:52 AM,73.0,64.9,76,29.97,10.0,SSE,6.9,-,N/A,,Clear,160,2013-08-21 05:52:00
1:52 AM,73.0,64.9,76,29.97,10.0,South,8.1,-,N/A,,Clear,170,2013-08-21 06:52:00
2:52 AM,72.0,64.9,78,29.96,9.0,SSE,8.1,-,N/A,,Clear,160,2013-08-21 07:52:00
3:52 AM,71.1,64.9,81,29.96,9.0,SSE,6.9,-,N/A,,Clear,160,2013-08-21 08:52:00
4:52 AM,69.1,64.9,87,29.96,8.0,SSE,8.1,-,N/A,,Clear,160,2013-08-21 09:52:00
5:52 AM,69.1,64.0,84,29.97,8.0,SSE,6.9,-,N/A,,Clear,160,2013-08-21 10:52:00
6:52 AM,68.0,63.0,84,29.98,8.0,SE,5.8,-,N/A,,Clear,140,2013-08-21 11:52:00
7:52 AM,69.1,64.0,84,30.00,7.0,SE,6.9,-,N/A,,Clear,140,2013-08-21 12:52:00
8:52 AM,73.0,66.0,79,30.01,9.0,SSE,9.2,-,N/A,,Clear,150,2013-08-21 13:52:00
9:52 AM,78.1,64.9,64,30.01,9.0,South,8.1,-,N/A,,Clear,190,2013-08-21 14:52:00
10:52 AM,82.9,63.0,51,30.00,10.0,SSW,11.5,-,N/A,,Clear,200,2013-08-21 15:52:00
11:52 AM,88.0,63.0,43,29.99,10.0,SSW,15.0,19.6,N/A,,Clear,200,2013-08-21 16:52:00
12:52 PM,90.0,63.0,40,29.98,10.0,South,19.6,23.0,N/A,,Clear,190,2013-08-21 17:52:00
1:52 PM,91.0,64.0,41,29.98,10.0,South,13.8,21.9,N/A,,Clear,190,2013-08-21 18:52:00
2:52 PM,91.9,64.9,41,29.97,10.0,South,16.1,20.7,N/A,,Clear,180,2013-08-21 19:52:00
3:52 PM,93.0,63.0,37,29.95,10.0,South,16.1,-,N/A,,Clear,190,2013-08-21 20:52:00
4:52 PM,91.9,62.1,37,29.94,10.0,SSW,17.3,-,N/A,,Clear,200,2013-08-21 21:52:00
5:52 PM,91.0,62.1,38,29.94,10.0,South,13.8,-,N/A,,Clear,170,2013-08-21 22:52:00
6:52 PM,88.0,62.1,42,29.94,10.0,SSE,10.4,-,N/A,,Clear,160,2013-08-21 23:52:00
7:52 PM,82.9,63.0,51,29.94,10.0,SSE,8.1,-,N/A,,Clear,150,2013-08-22 00:52:00
8:52 PM,78.1,63.0,60,29.96,10.0,SE,8.1,-,N/A,,Clear,140,2013-08-22 01:52:00
9:52 PM,75.9,62.1,62,29.98,10.0,SSE,6.9,-,N/A,,Clear,160,2013-08-22 02:52:00
10:52 PM,73.0,62.1,68,29.99,10.0,SE,5.8,-,N/A,,Clear,140,2013-08-22 03:52:00
11:52 PM,71.1,63.0,75,29.97,10.0,SSE,4.6,-,N/A,,Clear,160,2013-08-22 04:52:00